Time,TemperatureF,DewpointF,PressureIn,WindDirection,WindDirectionDegrees,WindSpeedMPH,WindSpeedGustMPH,Humidity,HourlyPrecipIn,Conditions,Clouds,dailyrainin,SoftwareType,DateUTC
2013-05-31 00:01:00,67.5,63.5,30.19,SSE,156,0.0,0.0,87,0.00,,BKN046,0.00,VWS V14.01,2013-05-31 04:01:00,
2013-05-31 00:06:00,68.0,63.7,30.19,SSE,156,0.0,0.0,86,0.00,,BKN046,0.00,VWS V14.01,2013-05-31 04:06:00,
2013-05-31 00:11:00,68.1,64.1,30.20,SSE,155,0.0,0.0,87,0.00,,BKN046,0.00,VWS V14.01,2013-05-31 04:11:00,
2013-05-31 00:14:00,68.1,64.1,30.19,SSE,155,0.0,1.3,87,0.00,,BKN046,0.00,VWS V14.01,2013-05-31 04:14:00,
2013-05-31 00:20:00,68.2,64.2,30.20,SSE,155,0.0,0.0,87,0.00,,BKN046,0.00,VWS V14.01,2013-05-31 04:20:00,
2013-05-31 00:25:00,68.3,64.3,30.20,SSE,155,0.0,0.0,87,0.00,,BKN046,0.00,VWS V14.01,2013-05-31 04:25:00,
2013-05-31 00:30:00,68.7,64.3,30.20,SSE,155,0.0,1.3,86,0.00,,BKN046,0.00,VWS V14.01,2013-05-31 04:30:00,
2013-05-31 00:35:00,68.9,64.2,30.20,SSE,155,0.0,0.0,85,0.00,,BKN046,0.00,VWS V14.01,2013-05-31 04:35:00,
2013-05-31 00:40:00,68.9,64.2,30.20,SSE,155,0.0,0.0,85,0.00,,BKN046,0.00,VWS V14.01,2013-05-31 04:40:00,
2013-05-31 00:45:00,68.8,64.1,30.20,SSE,155,0.0,0.0,85,0.00,,BKN046,0.00,VWS V14.01,2013-05-31 04:45:00,
2013-05-31 00:50:00,68.5,63.8,30.20,SSE,155,0.0,0.0,85,0.00,,BKN046,0.00,VWS V14.01,2013-05-31 04:50:00,
2013-05-31 00:55:00,68.4,64.1,30.20,SSE,156,0.0,0.0,86,0.00,,BKN046,0.00,VWS V14.01,2013-05-31 04:55:00,
2013-05-31 01:00:00,68.3,64.0,30.20,SSE,155,0.0,0.0,86,0.00,,BKN046,0.00,VWS V14.01,2013-05-31 05:00:00,
2013-05-31 01:05:00,68.4,64.1,30.20,SSE,155,0.0,0.0,86,0.00,,BKN075,0.00,VWS V14.01,2013-05-31 05:05:00,
2013-05-31 01:10:00,68.5,63.8,30.20,SSE,155,0.0,0.0,85,0.00,,BKN075,0.00,VWS V14.01,2013-05-31 05:10:00,
2013-05-31 01:15:00,68.4,64.1,30.20,SSE,156,1.3,3.9,86,0.00,,BKN075,0.00,VWS V14.01,2013-05-31 05:15:00,
2013-05-31 01:20:00,68.6,64.2,30.20,SSE,156,0.0,0.0,86,0.00,,BKN075,0.00,VWS V14.01,2013-05-31 05:20:00,
2013-05-31 01:25:00,68.7,64.3,30.20,SSE,156,0.0,1.3,86,0.00,,BKN075,0.00,VWS V14.01,2013-05-31 05:25:00,
2013-05-31 01:30:00,68.9,64.6,30.20,SSE,156,0.0,1.3,86,0.00,,BKN075,0.00,VWS V14.01,2013-05-31 05:30:00,
2013-05-31 01:35:00,69.2,64.8,30.20,SSE,156,0.0,0.0,86,0.00,,BKN075,0.00,VWS V14.01,2013-05-31 05:35:00,
2013-05-31 01:40:00,69.3,64.6,30.20,SSE,155,0.0,0.0,85,0.00,,BKN075,0.00,VWS V14.01,2013-05-31 05:40:00,
2013-05-31 01:45:00,69.3,64.9,30.20,SSE,155,0.0,0.0,86,0.00,,BKN075,0.00,VWS V14.01,2013-05-31 05:45:00,
2013-05-31 01:50:00,69.2,64.5,30.20,SSE,156,0.0,0.0,85,0.00,,BKN075,0.00,VWS V14.01,2013-05-31 05:50:00,
2013-05-31 01:55:00,69.1,64.7,30.20,SSE,155,0.0,0.0,86,0.00,,BKN075,0.00,VWS V14.01,2013-05-31 05:55:00,
2013-05-31 02:00:00,69.1,64.7,30.20,SSE,156,0.0,0.0,86,0.00,,FEW050,0.00,VWS V14.01,2013-05-31 06:00:00,
2013-05-31 02:05:00,69.3,64.9,30.20,SSE,156,0.0,1.3,86,0.00,,FEW050,0.00,VWS V14.01,2013-05-31 06:05:00,
2013-05-31 02:10:00,69.8,65.4,30.20,SSE,160,2.6,5.2,86,0.00,,FEW050,0.00,VWS V14.01,2013-05-31 06:10:00,
2013-05-31 02:15:00,70.5,65.8,30.19,SSE,160,1.3,2.6,85,0.00,,FEW050,0.00,VWS V14.01,2013-05-31 06:15:00,
2013-05-31 02:20:00,70.8,65.7,30.19,SSE,167,0.0,3.9,84,0.00,,FEW050,0.00,VWS V14.01,2013-05-31 06:20:00,
2013-05-31 02:25:00,70.9,65.8,30.19,SSE,167,0.0,1.3,84,0.00,,FEW050,0.00,VWS V14.01,2013-05-31 06:25:00,
2013-05-31 02:30:00,71.0,65.9,30.19,SSE,167,0.0,0.0,84,0.00,,FEW050,0.00,VWS V14.01,2013-05-31 06:30:00,
2013-05-31 02:35:00,70.8,65.7,30.19,SSE,167,0.0,1.3,84,0.00,,FEW050,0.00,VWS V14.01,2013-05-31 06:35:00,
2013-05-31 02:40:00,70.7,65.6,30.19,SSE,167,0.0,3.9,84,0.00,,FEW050,0.00,VWS V14.01,2013-05-31 06:40:00,
2013-05-31 02:45:00,70.6,65.5,30.19,SSE,167,0.0,1.3,84,0.00,,FEW050,0.00,VWS V14.01,2013-05-31 06:45:00,
2013-05-31 02:50:00,70.5,65.4,30.19,SSE,167,1.3,3.9,84,0.00,,FEW050,0.00,VWS V14.01,2013-05-31 06:50:00,
2013-05-31 02:55:00,70.3,65.6,30.19,SSE,167,0.0,0.0,85,0.00,,FEW050,0.00,VWS V14.01,2013-05-31 06:55:00,
2013-05-31 03:00:00,70.1,65.4,30.19,SSE,167,0.0,1.3,85,0.00,,SCT070,0.00,VWS V14.01,2013-05-31 07:00:00,
2013-05-31 03:05:00,70.0,65.3,30.19,SSE,167,0.0,0.0,85,0.00,,SCT070,0.00,VWS V14.01,2013-05-31 07:05:00,
2013-05-31 03:10:00,69.8,65.1,30.19,SSE,167,0.0,1.3,85,0.00,,SCT070,0.00,VWS V14.01,2013-05-31 07:10:00,
2013-05-31 03:16:00,69.6,65.2,30.19,SSE,167,0.0,0.0,86,0.00,,SCT070,0.00,VWS V14.01,2013-05-31 07:16:00,
2013-05-31 03:21:00,69.4,65.0,30.19,SSE,167,0.0,1.3,86,0.00,,SCT070,0.00,VWS V14.01,2013-05-31 07:21:00,
2013-05-31 03:26:00,69.1,64.4,30.18,SSE,167,0.0,0.0,85,0.00,,SCT070,0.00,VWS V14.01,2013-05-31 07:26:00,
2013-05-31 03:31:00,68.7,64.3,30.18,SSE,167,0.0,0.0,86,0.00,,SCT070,0.00,VWS V14.01,2013-05-31 07:31:00,
2013-05-31 03:36:00,68.4,64.1,30.18,SSE,167,0.0,0.0,86,0.00,,SCT070,0.00,VWS V14.01,2013-05-31 07:36:00,
2013-05-31 03:41:00,67.9,63.9,30.18,SSE,167,0.0,0.0,87,0.00,,SCT070,0.00,VWS V14.01,2013-05-31 07:41:00,
2013-05-31 03:46:00,67.6,63.9,30.18,SSE,167,0.0,0.0,88,0.00,,SCT070,0.00,VWS V14.01,2013-05-31 07:46:00,
2013-05-31 03:51:00,67.4,63.7,30.18,SSE,167,0.0,0.0,88,0.00,,SCT070,0.00,VWS V14.01,2013-05-31 07:51:00,
2013-05-31 03:56:00,67.1,63.4,30.19,SSE,167,0.0,0.0,88,0.00,,SCT070,0.00,VWS V14.01,2013-05-31 07:56:00,
2013-05-31 04:01:00,66.9,63.6,30.19,SSE,167,0.0,0.0,89,0.00,,CLR,0.00,VWS V14.01,2013-05-31 08:01:00,
2013-05-31 04:06:00,66.6,62.9,30.18,SSE,167,0.0,0.0,88,0.00,,CLR,0.00,VWS V14.01,2013-05-31 08:06:00,
2013-05-31 04:11:00,66.4,63.1,30.18,SSE,167,0.0,0.0,89,0.00,,CLR,0.00,VWS V14.01,2013-05-31 08:11:00,
2013-05-31 04:16:00,66.2,62.9,30.18,SSE,167,0.0,0.0,89,0.00,,CLR,0.00,VWS V14.01,2013-05-31 08:16:00,
2013-05-31 04:21:00,66.0,62.7,30.18,SSE,167,0.0,0.0,89,0.00,,CLR,0.00,VWS V14.01,2013-05-31 08:21:00,
2013-05-31 04:26:00,65.8,62.8,30.18,SSE,167,0.0,0.0,90,0.00,,CLR,0.00,VWS V14.01,2013-05-31 08:26:00,
2013-05-31 04:31:00,65.6,62.6,30.18,SSE,167,0.0,0.0,90,0.00,,CLR,0.00,VWS V14.01,2013-05-31 08:31:00,
2013-05-31 04:36:00,65.4,62.4,30.18,SSE,167,0.0,0.0,90,0.00,,CLR,0.00,VWS V14.01,2013-05-31 08:36:00,
2013-05-31 04:41:00,65.3,62.3,30.18,SSE,167,0.0,0.0,90,0.00,,CLR,0.00,VWS V14.01,2013-05-31 08:41:00,
2013-05-31 04:46:00,65.2,62.5,30.18,SSE,167,0.0,0.0,91,0.00,,CLR,0.00,VWS V14.01,2013-05-31 08:46:00,
2013-05-31 04:51:00,65.1,62.4,30.18,SSE,167,0.0,0.0,91,0.00,,CLR,0.00,VWS V14.01,2013-05-31 08:51:00,
2013-05-31 04:56:00,65.1,62.4,30.18,SSE,167,0.0,0.0,91,0.00,,CLR,0.00,VWS V14.01,2013-05-31 08:56:00,
2013-05-31 05:01:00,65.1,62.7,30.18,SSE,167,0.0,0.0,92,0.00,,SCT065,0.00,VWS V14.01,2013-05-31 09:01:00,
2013-05-31 05:06:00,64.9,62.2,30.18,SSE,167,0.0,0.0,91,0.00,,SCT065,0.00,VWS V14.01,2013-05-31 09:06:00,
2013-05-31 05:11:00,64.8,62.1,30.18,SSE,167,0.0,0.0,91,0.00,,SCT065,0.00,VWS V14.01,2013-05-31 09:11:00,
2013-05-31 05:16:00,64.7,62.0,30.18,SSE,167,0.0,0.0,91,0.00,,SCT065,0.00,VWS V14.01,2013-05-31 09:16:00,
2013-05-31 05:21:00,64.5,62.1,30.19,SSE,167,0.0,1.3,92,0.00,,SCT065,0.00,VWS V14.01,2013-05-31 09:21:00,
2013-05-31 05:26:00,64.5,62.1,30.19,SSE,167,0.0,0.0,92,0.00,,SCT065,0.00,VWS V14.01,2013-05-31 09:26:00,
2013-05-31 05:31:00,64.5,62.1,30.19,SSE,167,0.0,0.0,92,0.00,,SCT065,0.00,VWS V14.01,2013-05-31 09:31:00,
2013-05-31 05:36:00,64.5,62.1,30.19,SSE,167,0.0,0.0,92,0.00,,SCT065,0.00,VWS V14.01,2013-05-31 09:36:00,
2013-05-31 05:41:00,64.6,62.5,30.19,SSE,167,0.0,0.0,93,0.00,,SCT065,0.00,VWS V14.01,2013-05-31 09:41:00,
2013-05-31 05:46:00,64.7,62.6,30.19,SSE,167,0.0,0.0,93,0.00,,SCT065,0.00,VWS V14.01,2013-05-31 09:46:00,
2013-05-31 05:51:00,64.8,62.7,30.19,SSE,167,0.0,0.0,93,0.00,,SCT065,0.00,VWS V14.01,2013-05-31 09:51:00,
2013-05-31 05:56:00,64.8,62.7,30.19,SSE,167,0.0,0.0,93,0.00,,SCT065,0.00,VWS V14.01,2013-05-31 09:56:00,
2013-05-31 06:01:00,64.9,62.8,30.19,SSE,167,0.0,0.0,93,0.00,,BKN065,0.00,VWS V14.01,2013-05-31 10:01:00,
2013-05-31 06:06:00,64.9,62.8,30.19,SSE,167,0.0,0.0,93,0.00,,BKN065,0.00,VWS V14.01,2013-05-31 10:06:00,
2013-05-31 06:11:00,65.0,62.9,30.19,SSE,167,0.0,0.0,93,0.00,,BKN016,0.00,VWS V14.01,2013-05-31 10:11:00,
2013-05-31 06:16:00,65.1,63.0,30.19,SSE,167,0.0,0.0,93,0.00,,BKN016,0.00,VWS V14.01,2013-05-31 10:16:00,
2013-05-31 06:21:00,65.2,63.1,30.20,SSE,167,0.0,0.0,93,0.00,,BKN016,0.00,VWS V14.01,2013-05-31 10:21:00,
2013-05-31 06:26:00,65.3,63.2,30.20,SSE,167,0.0,0.0,93,0.00,,BKN016,0.00,VWS V14.01,2013-05-31 10:26:00,
2013-05-31 06:31:00,65.5,63.4,30.20,SSE,167,0.0,1.3,93,0.00,,BKN016,0.00,VWS V14.01,2013-05-31 10:31:00,
2013-05-31 06:36:00,65.7,63.3,30.20,SSE,167,0.0,0.0,92,0.00,,BKN016,0.00,VWS V14.01,2013-05-31 10:36:00,
2013-05-31 06:41:00,65.9,63.5,30.20,SSE,167,0.0,0.0,92,0.00,,OVC014,0.00,VWS V14.01,2013-05-31 10:41:00,
2013-05-31 06:46:00,66.1,64.0,30.20,SSE,167,0.0,0.0,93,0.00,,OVC014,0.00,VWS V14.01,2013-05-31 10:46:00,
2013-05-31 06:52:00,66.4,64.0,30.20,WSW,250,2.6,3.9,92,0.00,,OVC014,0.00,VWS V14.01,2013-05-31 10:52:00,
2013-05-31 06:57:00,67.1,64.7,30.20,WSW,250,0.0,1.3,92,0.00,,OVC014,0.00,VWS V14.01,2013-05-31 10:57:00,
2013-05-31 07:02:00,67.4,65.0,30.21,WSW,250,0.0,1.3,92,0.00,,OVC014,0.00,VWS V14.01,2013-05-31 11:02:00,
2013-05-31 07:07:00,67.7,65.0,30.21,WSW,250,1.3,2.6,91,0.00,,OVC014,0.00,VWS V14.01,2013-05-31 11:07:00,
2013-05-31 07:12:00,68.1,65.4,30.21,WSW,250,1.3,2.6,91,0.00,,OVC014,0.00,VWS V14.01,2013-05-31 11:12:00,
2013-05-31 07:17:00,68.3,65.6,30.21,SSW,202,3.9,6.5,91,0.00,,OVC014,0.00,VWS V14.01,2013-05-31 11:17:00,
2013-05-31 07:22:00,68.8,66.1,30.21,SW,227,0.0,3.9,91,0.00,,OVC014,0.00,VWS V14.01,2013-05-31 11:22:00,
2013-05-31 07:27:00,69.2,66.2,30.22,SW,227,2.6,5.2,90,0.00,,OVC014,0.00,VWS V14.01,2013-05-31 11:27:00,
2013-05-31 07:32:00,69.5,66.1,30.22,SW,227,0.0,3.9,89,0.00,,OVC014,0.00,VWS V14.01,2013-05-31 11:32:00,
2013-05-31 07:37:00,69.7,66.3,30.22,SW,235,1.3,6.5,89,0.00,,OVC014,0.00,VWS V14.01,2013-05-31 11:37:00,
2013-05-31 07:42:00,69.9,66.5,30.22,West,259,2.6,3.9,89,0.00,,OVC014,0.00,VWS V14.01,2013-05-31 11:42:00,
2013-05-31 07:47:00,70.0,66.3,30.22,WSW,242,1.3,5.2,88,0.00,,OVC014,0.00,VWS V14.01,2013-05-31 11:47:00,
2013-05-31 07:52:00,70.2,66.5,30.22,SSW,192,2.6,2.6,88,0.00,,OVC014,0.00,VWS V14.01,2013-05-31 11:52:00,
2013-05-31 07:57:00,70.6,66.9,30.22,SW,215,2.6,3.9,88,0.00,,OVC014,0.00,VWS V14.01,2013-05-31 11:57:00,
2013-05-31 08:02:00,70.8,66.7,30.22,SSW,195,5.2,7.8,87,0.00,,OVC040,0.00,VWS V14.01,2013-05-31 12:02:00,
2013-05-31 08:07:00,71.0,66.9,30.22,SSE,153,10.4,10.4,87,0.00,,OVC040,0.00,VWS V14.01,2013-05-31 12:07:00,
2013-05-31 08:12:00,71.2,67.1,30.22,SSW,196,3.9,9.1,87,0.00,,OVC040,0.00,VWS V14.01,2013-05-31 12:12:00,
2013-05-31 08:17:00,71.6,67.2,30.22,SE,145,7.8,11.7,86,0.00,,BKN044,0.00,VWS V14.01,2013-05-31 12:17:00,
2013-05-31 08:22:00,71.7,67.3,30.22,West,259,7.8,10.4,86,0.00,,BKN044,0.00,VWS V14.01,2013-05-31 12:22:00,
2013-05-31 08:27:00,71.5,67.1,30.23,SW,216,0.0,6.5,86,0.00,,BKN044,0.00,VWS V14.01,2013-05-31 12:27:00,
2013-05-31 08:32:00,71.4,67.0,30.23,West,260,2.6,9.1,86,0.00,,BKN044,0.00,VWS V14.01,2013-05-31 12:32:00,
2013-05-31 08:37:00,71.5,67.1,30.23,WSW,254,6.5,9.1,86,0.00,,BKN044,0.00,VWS V14.01,2013-05-31 12:37:00,
2013-05-31 08:42:00,71.7,67.3,30.23,South,175,0.0,2.6,86,0.00,,BKN044,0.00,VWS V14.01,2013-05-31 12:42:00,
2013-05-31 08:47:00,71.8,67.1,30.23,WSW,250,9.1,10.4,85,0.00,,BKN044,0.00,VWS V14.01,2013-05-31 12:47:00,
2013-05-31 08:52:00,71.5,66.8,30.23,WSW,256,3.9,11.7,85,0.00,,BKN044,0.00,VWS V14.01,2013-05-31 12:52:00,
2013-05-31 08:57:00,71.5,66.8,30.23,West,262,5.2,7.8,85,0.00,,BKN044,0.00,VWS V14.01,2013-05-31 12:57:00,
2013-05-31 09:02:00,71.5,66.8,30.22,West,261,2.6,5.2,85,0.00,,BKN016,0.00,VWS V14.01,2013-05-31 13:02:00,
2013-05-31 09:07:00,72.1,67.3,30.22,SSW,196,6.5,7.8,85,0.00,,BKN016,0.00,VWS V14.01,2013-05-31 13:07:00,
2013-05-31 09:12:00,72.2,67.1,30.22,SW,217,3.9,9.1,84,0.00,,BKN016,0.00,VWS V14.01,2013-05-31 13:12:00,
2013-05-31 09:17:00,72.2,67.1,30.22,West,265,7.8,7.8,84,0.00,,BKN016,0.00,VWS V14.01,2013-05-31 13:17:00,
2013-05-31 09:22:00,72.1,67.0,30.22,SSW,199,2.6,5.2,84,0.00,,BKN016,0.00,VWS V14.01,2013-05-31 13:22:00,
2013-05-31 09:27:00,72.3,67.2,30.22,South,184,3.9,6.5,84,0.00,,BKN016,0.00,VWS V14.01,2013-05-31 13:27:00,
2013-05-31 09:32:00,73.2,68.1,30.22,SSW,207,3.9,9.1,84,0.00,,BKN016,0.00,VWS V14.01,2013-05-31 13:32:00,
2013-05-31 09:37:00,73.3,67.5,30.22,SSE,160,1.3,6.5,82,0.00,,BKN016,0.00,VWS V14.01,2013-05-31 13:37:00,
2013-05-31 09:42:00,73.5,67.7,30.23,South,171,5.2,10.4,82,0.00,,BKN016,0.00,VWS V14.01,2013-05-31 13:42:00,
2013-05-31 09:47:00,74.0,68.2,30.22,SSW,213,0.0,5.2,82,0.00,,BKN016,0.00,VWS V14.01,2013-05-31 13:47:00,
2013-05-31 09:52:00,74.5,67.9,30.23,SE,133,5.2,7.8,80,0.00,,BKN016,0.00,VWS V14.01,2013-05-31 13:52:00,
2013-05-31 09:57:00,74.9,68.3,30.23,SSW,209,5.2,6.5,80,0.00,,SCT040,0.00,VWS V14.01,2013-05-31 13:57:00,
2013-05-31 10:02:00,75.4,68.1,30.23,WNW,292,9.1,11.7,78,0.00,,SCT038,0.00,VWS V14.01,2013-05-31 14:02:00,
2013-05-31 10:07:00,75.9,68.6,30.22,WSW,238,5.2,6.5,78,0.00,,SCT038,0.00,VWS V14.01,2013-05-31 14:07:00,
2013-05-31 10:12:00,75.1,67.0,30.22,WNW,286,2.6,10.4,76,0.00,,SCT038,0.00,VWS V14.01,2013-05-31 14:12:00,
2013-05-31 10:17:00,74.8,67.1,30.23,WSW,242,7.8,11.7,77,0.00,,SCT038,0.00,VWS V14.01,2013-05-31 14:17:00,
2013-05-31 10:22:00,75.3,67.2,30.23,WNW,286,7.8,9.1,76,0.00,,SCT038,0.00,VWS V14.01,2013-05-31 14:22:00,
2013-05-31 10:28:00,75.6,67.5,30.23,South,187,2.6,7.8,76,0.00,,SCT038,0.00,VWS V14.01,2013-05-31 14:28:00,
2013-05-31 10:33:00,75.8,68.5,30.22,SW,223,3.9,7.8,78,0.00,,SCT038,0.00,VWS V14.01,2013-05-31 14:33:00,
2013-05-31 10:38:00,76.1,67.2,30.23,South,184,7.8,10.4,74,0.00,,SCT038,0.00,VWS V14.01,2013-05-31 14:38:00,
2013-05-31 10:43:00,76.2,67.3,30.22,SSE,167,1.3,10.4,74,0.00,,SCT038,0.00,VWS V14.01,2013-05-31 14:43:00,
2013-05-31 10:48:00,76.9,68.0,30.22,SSW,200,3.9,13.0,74,0.00,,SCT038,0.00,VWS V14.01,2013-05-31 14:48:00,
2013-05-31 10:53:00,76.3,67.4,30.22,WSW,246,2.6,10.4,74,0.00,,SCT038,0.00,VWS V14.01,2013-05-31 14:53:00,
2013-05-31 10:58:00,75.8,67.3,30.22,South,178,0.0,5.2,75,0.00,,SCT038,0.00,VWS V14.01,2013-05-31 14:58:00,
2013-05-31 11:03:00,76.1,67.2,30.22,West,265,3.9,9.1,74,0.00,,SCT038,0.00,VWS V14.01,2013-05-31 15:03:00,
2013-05-31 11:08:00,76.2,67.7,30.22,NW,323,2.6,3.9,75,0.00,,SCT038,0.00,VWS V14.01,2013-05-31 15:08:00,
2013-05-31 11:13:00,76.7,67.8,30.22,SW,229,6.5,7.8,74,0.00,,SCT038,0.00,VWS V14.01,2013-05-31 15:13:00,
2013-05-31 11:18:00,76.1,67.2,30.22,NW,306,0.0,9.1,74,0.00,,SCT038,0.00,VWS V14.01,2013-05-31 15:18:00,
2013-05-31 11:23:00,76.2,67.7,30.23,SW,214,1.3,6.5,75,0.00,,SCT038,0.00,VWS V14.01,2013-05-31 15:23:00,
2013-05-31 11:28:00,76.2,66.9,30.22,West,267,9.1,10.4,73,0.00,,SCT038,0.00,VWS V14.01,2013-05-31 15:28:00,
2013-05-31 11:33:00,76.1,66.8,30.22,WNW,286,2.6,3.9,73,0.00,,SCT038,0.00,VWS V14.01,2013-05-31 15:33:00,
2013-05-31 11:38:00,76.7,67.4,30.22,West,267,7.8,7.8,73,0.00,,SCT038,0.00,VWS V14.01,2013-05-31 15:38:00,
2013-05-31 11:43:00,76.9,67.2,30.22,South,188,2.6,6.5,72,0.00,,SCT038,0.00,VWS V14.01,2013-05-31 15:43:00,
2013-05-31 11:48:00,77.1,67.0,30.22,SE,137,2.6,6.5,71,0.00,,SCT038,0.00,VWS V14.01,2013-05-31 15:48:00,
2013-05-31 11:53:00,77.3,67.6,30.22,SSW,192,3.9,7.8,72,0.00,,SCT038,0.00,VWS V14.01,2013-05-31 15:53:00,
2013-05-31 11:58:00,77.4,67.3,30.22,South,173,3.9,9.1,71,0.00,,SCT038,0.00,VWS V14.01,2013-05-31 15:58:00,
2013-05-31 12:03:00,77.6,67.9,30.22,SE,135,1.3,5.2,72,0.00,,SCT038,0.00,VWS V14.01,2013-05-31 16:03:00,
2013-05-31 12:08:00,78.2,67.6,30.21,WSW,240,1.3,7.8,70,0.00,,SCT038,0.00,VWS V14.01,2013-05-31 16:08:00,
2013-05-31 12:13:00,79.1,67.6,30.21,SW,225,3.9,5.2,68,0.00,,SCT038,0.00,VWS V14.01,2013-05-31 16:13:00,
2013-05-31 12:18:00,78.9,66.6,30.21,SSW,194,2.6,10.4,66,0.00,,SCT038,0.00,VWS V14.01,2013-05-31 16:18:00,
2013-05-31 12:23:00,78.9,67.9,30.21,SE,132,6.5,10.4,69,0.00,,SCT038,0.00,VWS V14.01,2013-05-31 16:23:00,
2013-05-31 12:28:00,79.6,68.1,30.21,SSE,156,1.3,7.8,68,0.00,,SCT038,0.00,VWS V14.01,2013-05-31 16:28:00,
2013-05-31 12:33:00,80.6,68.2,30.20,South,183,5.2,6.5,66,0.00,,SCT038,0.00,VWS V14.01,2013-05-31 16:33:00,
2013-05-31 12:38:00,80.4,68.4,30.20,NNE,31,1.3,5.2,67,0.00,,SCT038,0.00,VWS V14.01,2013-05-31 16:38:00,
2013-05-31 12:43:00,79.9,66.7,30.20,West,266,0.0,7.8,64,0.00,,SCT038,0.00,VWS V14.01,2013-05-31 16:43:00,
2013-05-31 12:48:00,78.8,66.9,30.20,SSE,158,1.3,7.8,67,0.00,,SCT038,0.00,VWS V14.01,2013-05-31 16:48:00,
2013-05-31 12:53:00,78.6,67.2,30.20,SSW,211,2.6,9.1,68,0.00,,SCT038,0.00,VWS V14.01,2013-05-31 16:53:00,
2013-05-31 12:58:00,79.3,67.4,30.20,SSW,209,6.5,6.5,67,0.00,,SCT038,0.00,VWS V14.01,2013-05-31 16:58:00,
2013-05-31 13:03:00,79.7,66.0,30.20,SSE,157,1.3,7.8,63,0.00,,CLR,0.00,VWS V14.01,2013-05-31 17:03:00,
2013-05-31 13:08:00,79.9,67.1,30.20,SSW,204,5.2,10.4,65,0.00,,CLR,0.00,VWS V14.01,2013-05-31 17:08:00,
2013-05-31 13:13:00,80.2,66.9,30.19,SSW,205,0.0,3.9,64,0.00,,CLR,0.00,VWS V14.01,2013-05-31 17:13:00,
2013-05-31 13:18:00,80.5,67.7,30.19,WSW,257,5.2,5.2,65,0.00,,CLR,0.00,VWS V14.01,2013-05-31 17:18:00,
2013-05-31 13:23:00,79.7,67.3,30.19,WSW,244,3.9,7.8,66,0.00,,CLR,0.00,VWS V14.01,2013-05-31 17:23:00,
2013-05-31 13:28:00,79.2,66.9,30.19,West,276,9.1,10.4,66,0.00,,CLR,0.00,VWS V14.01,2013-05-31 17:28:00,
2013-05-31 13:33:00,79.3,67.0,30.18,SSW,213,6.5,9.1,66,0.00,,CLR,0.00,VWS V14.01,2013-05-31 17:33:00,
2013-05-31 13:39:00,80.0,66.3,30.18,WSW,258,7.8,9.1,63,0.00,,CLR,0.00,VWS V14.01,2013-05-31 17:39:00,
2013-05-31 13:44:00,80.2,67.8,30.18,NW,311,3.9,6.5,66,0.00,,CLR,0.00,VWS V14.01,2013-05-31 17:44:00,
2013-05-31 13:49:00,79.8,67.9,30.18,West,263,3.9,6.5,67,0.00,,CLR,0.00,VWS V14.01,2013-05-31 17:49:00,
2013-05-31 13:54:00,80.6,67.8,30.18,West,259,9.1,9.1,65,0.00,,CLR,0.00,VWS V14.01,2013-05-31 17:54:00,
2013-05-31 13:59:00,80.9,67.6,30.17,SSE,162,2.6,6.5,64,0.00,,CLR,0.00,VWS V14.01,2013-05-31 17:59:00,
2013-05-31 14:04:00,81.1,67.8,30.17,South,184,5.2,6.5,64,0.00,,SCT045,0.00,VWS V14.01,2013-05-31 18:04:00,
2013-05-31 14:09:00,81.6,67.3,30.17,WSW,254,5.2,5.2,62,0.00,,SCT045,0.00,VWS V14.01,2013-05-31 18:09:00,
2013-05-31 14:14:00,81.9,67.6,30.17,ESE,114,0.0,1.3,62,0.00,,SCT045,0.00,VWS V14.01,2013-05-31 18:14:00,
2013-05-31 14:19:00,82.3,67.5,30.17,ESE,117,1.3,3.9,61,0.00,,SCT045,0.00,VWS V14.01,2013-05-31 18:19:00,
2013-05-31 14:24:00,81.4,67.1,30.16,SSW,207,1.3,5.2,62,0.00,,SCT045,0.00,VWS V14.01,2013-05-31 18:24:00,
2013-05-31 14:29:00,81.3,67.5,30.16,SW,221,5.2,9.1,63,0.00,,SCT045,0.00,VWS V14.01,2013-05-31 18:29:00,
2013-05-31 14:34:00,82.1,66.8,30.16,West,271,5.2,7.8,60,0.00,,SCT045,0.00,VWS V14.01,2013-05-31 18:34:00,
2013-05-31 14:39:00,82.6,66.3,30.16,WNW,283,7.8,9.1,58,0.00,,SCT045,0.00,VWS V14.01,2013-05-31 18:39:00,
2013-05-31 14:44:00,82.7,66.4,30.16,SE,130,3.9,10.4,58,0.00,,SCT045,0.00,VWS V14.01,2013-05-31 18:44:00,
2013-05-31 14:49:00,82.7,65.9,30.15,SSW,195,1.3,3.9,57,0.00,,SCT045,0.00,VWS V14.01,2013-05-31 18:49:00,
2013-05-31 14:54:00,82.9,67.1,30.15,South,181,2.6,5.2,59,0.00,,SCT045,0.00,VWS V14.01,2013-05-31 18:54:00,
2013-05-31 14:59:00,83.2,65.9,30.15,West,259,9.1,9.1,56,0.00,,SCT045,0.00,VWS V14.01,2013-05-31 18:59:00,
2013-05-31 15:04:00,83.2,65.4,30.15,West,262,2.6,13.0,55,0.00,,SCT047,0.00,VWS V14.01,2013-05-31 19:04:00,
2013-05-31 15:09:00,82.8,65.0,30.15,NNE,13,1.3,7.8,55,0.00,,SCT047,0.00,VWS V14.01,2013-05-31 19:09:00,
2013-05-31 15:14:00,83.0,66.2,30.15,West,266,7.8,11.7,57,0.00,,SCT047,0.00,VWS V14.01,2013-05-31 19:14:00,
2013-05-31 15:19:00,83.2,66.9,30.15,SW,221,6.5,7.8,58,0.00,,SCT047,0.00,VWS V14.01,2013-05-31 19:19:00,
2013-05-31 15:24:00,82.8,66.5,30.15,SSW,194,2.6,5.2,58,0.00,,SCT047,0.00,VWS V14.01,2013-05-31 19:24:00,
2013-05-31 15:29:00,83.0,66.2,30.14,SSW,194,2.6,7.8,57,0.00,,SCT047,0.00,VWS V14.01,2013-05-31 19:29:00,
2013-05-31 15:34:00,83.0,67.2,30.14,SSE,167,1.3,5.2,59,0.00,,SCT047,0.00,VWS V14.01,2013-05-31 19:34:00,
2013-05-31 15:39:00,83.9,67.6,30.14,SSE,167,0.0,3.9,58,0.00,,SCT047,0.00,VWS V14.01,2013-05-31 19:39:00,
2013-05-31 15:44:00,84.4,67.0,30.14,South,171,5.2,10.4,56,0.00,,SCT047,0.00,VWS V14.01,2013-05-31 19:44:00,
2013-05-31 15:49:00,84.5,66.6,30.14,South,182,2.6,5.2,55,0.00,,SCT047,0.00,VWS V14.01,2013-05-31 19:49:00,
2013-05-31 15:54:00,83.8,65.9,30.14,SSW,202,11.7,13.0,55,0.00,,SCT047,0.00,VWS V14.01,2013-05-31 19:54:00,
2013-05-31 15:59:00,83.4,66.1,30.14,SE,145,3.9,11.7,56,0.00,,SCT047,0.00,VWS V14.01,2013-05-31 19:59:00,
2013-05-31 16:04:00,83.5,65.1,30.13,SW,223,1.3,10.4,54,0.00,,SCT060,0.00,VWS V14.01,2013-05-31 20:04:00,
2013-05-31 16:09:00,83.8,65.4,30.13,SSW,203,5.2,15.6,54,0.00,,SCT060,0.00,VWS V14.01,2013-05-31 20:09:00,
2013-05-31 16:14:00,83.9,65.5,30.13,SW,217,1.3,10.4,54,0.00,,SCT060,0.00,VWS V14.01,2013-05-31 20:14:00,
2013-05-31 16:19:00,84.2,66.3,30.12,SSW,211,2.6,6.5,55,0.00,,SCT060,0.00,VWS V14.01,2013-05-31 20:19:00,
2013-05-31 16:24:00,84.1,66.2,30.12,South,171,2.6,7.8,55,0.00,,SCT060,0.00,VWS V14.01,2013-05-31 20:24:00,
2013-05-31 16:29:00,83.5,65.7,30.12,SE,139,1.3,9.1,55,0.00,,SCT060,0.00,VWS V14.01,2013-05-31 20:29:00,
2013-05-31 16:34:00,82.9,65.1,30.12,South,171,2.6,10.4,55,0.00,,SCT060,0.00,VWS V14.01,2013-05-31 20:34:00,
2013-05-31 16:39:00,83.5,67.2,30.12,SW,221,5.2,9.1,58,0.00,,SCT060,0.00,VWS V14.01,2013-05-31 20:39:00,
2013-05-31 16:44:00,83.5,66.7,30.12,SE,135,2.6,5.2,57,0.00,,SCT060,0.00,VWS V14.01,2013-05-31 20:44:00,
2013-05-31 16:49:00,84.2,66.8,30.12,WSW,248,6.5,7.8,56,0.00,,SCT060,0.00,VWS V14.01,2013-05-31 20:49:00,
2013-05-31 16:54:00,83.6,66.3,30.12,SSW,198,5.2,6.5,56,0.00,,SCT060,0.00,VWS V14.01,2013-05-31 20:54:00,
2013-05-31 17:00:00,83.6,66.3,30.11,West,260,7.8,9.1,56,0.00,,SCT060,0.00,VWS V14.01,2013-05-31 21:00:00,
2013-05-31 17:05:00,83.4,66.1,30.12,SW,217,3.9,6.5,56,0.00,,SCT070,0.00,VWS V14.01,2013-05-31 21:05:00,
2013-05-31 17:10:00,82.8,66.0,30.12,SW,217,2.6,6.5,57,0.00,,SCT070,0.00,VWS V14.01,2013-05-31 21:10:00,
2013-05-31 17:15:00,82.3,66.1,30.11,South,180,1.3,5.2,58,0.00,,SCT070,0.00,VWS V14.01,2013-05-31 21:15:00,
2013-05-31 17:20:00,82.5,66.2,30.11,SSE,161,2.6,7.8,58,0.00,,SCT070,0.00,VWS V14.01,2013-05-31 21:20:00,
2013-05-31 17:25:00,82.5,66.2,30.11,West,271,5.2,7.8,58,0.00,,SCT070,0.00,VWS V14.01,2013-05-31 21:25:00,
2013-05-31 17:30:00,82.0,65.8,30.11,SSW,207,2.6,7.8,58,0.00,,SCT070,0.00,VWS V14.01,2013-05-31 21:30:00,
2013-05-31 17:35:00,81.8,66.1,30.11,South,177,0.0,3.9,59,0.00,,SCT070,0.00,VWS V14.01,2013-05-31 21:35:00,
2013-05-31 17:40:00,81.7,66.5,30.11,WSW,240,1.3,3.9,60,0.00,,SCT070,0.00,VWS V14.01,2013-05-31 21:40:00,
2013-05-31 17:45:00,81.8,66.6,30.11,SW,220,2.6,5.2,60,0.00,,SCT070,0.00,VWS V14.01,2013-05-31 21:45:00,
2013-05-31 17:50:00,81.9,66.7,30.11,WSW,248,2.6,5.2,60,0.00,,SCT070,0.00,VWS V14.01,2013-05-31 21:50:00,
2013-05-31 17:55:00,81.7,66.9,30.11,SSW,213,1.3,3.9,61,0.00,,SCT070,0.00,VWS V14.01,2013-05-31 21:55:00,
2013-05-31 18:00:00,82.0,67.2,30.11,West,260,7.8,7.8,61,0.00,,SCT070,0.00,VWS V14.01,2013-05-31 22:00:00,
2013-05-31 18:05:00,81.8,67.5,30.11,SW,229,3.9,3.9,62,0.00,,FEW055,0.00,VWS V14.01,2013-05-31 22:05:00,
2013-05-31 18:10:00,81.6,66.4,30.11,SW,228,1.3,3.9,60,0.00,,FEW055,0.00,VWS V14.01,2013-05-31 22:10:00,
2013-05-31 18:15:00,81.2,66.5,30.11,SSW,202,2.6,3.9,61,0.00,,FEW055,0.00,VWS V14.01,2013-05-31 22:15:00,
2013-05-31 18:20:00,81.4,66.7,30.11,West,279,3.9,3.9,61,0.00,,FEW055,0.00,VWS V14.01,2013-05-31 22:20:00,
2013-05-31 18:25:00,81.5,66.8,30.11,West,263,1.3,5.2,61,0.00,,FEW055,0.00,VWS V14.01,2013-05-31 22:25:00,
2013-05-31 18:30:00,82.2,66.9,30.11,West,263,1.3,2.6,60,0.00,,FEW055,0.00,VWS V14.01,2013-05-31 22:30:00,
2013-05-31 18:35:00,82.8,67.0,30.11,West,275,2.6,3.9,59,0.00,,FEW055,0.00,VWS V14.01,2013-05-31 22:35:00,
2013-05-31 18:40:00,82.6,68.3,30.11,West,259,0.0,2.6,62,0.00,,FEW055,0.00,VWS V14.01,2013-05-31 22:40:00,
2013-05-31 18:45:00,82.4,66.7,30.10,SSW,207,1.3,6.5,59,0.00,,FEW055,0.00,VWS V14.01,2013-05-31 22:45:00,
2013-05-31 18:50:00,82.5,67.7,30.10,WSW,252,2.6,5.2,61,0.00,,FEW055,0.00,VWS V14.01,2013-05-31 22:50:00,
2013-05-31 18:55:00,82.5,68.2,30.10,WSW,244,0.0,2.6,62,0.00,,FEW055,0.00,VWS V14.01,2013-05-31 22:55:00,
2013-05-31 19:00:00,82.7,68.4,30.11,WSW,244,0.0,1.3,62,0.00,,CLR,0.00,VWS V14.01,2013-05-31 23:00:00,
2013-05-31 19:05:00,83.1,69.2,30.10,WSW,244,0.0,1.3,63,0.00,,CLR,0.00,VWS V14.01,2013-05-31 23:05:00,
2013-05-31 19:10:00,83.3,68.0,30.10,SSW,205,0.0,2.6,60,0.00,,CLR,0.00,VWS V14.01,2013-05-31 23:10:00,
2013-05-31 19:15:00,83.6,67.8,30.10,SSW,205,0.0,5.2,59,0.00,,CLR,0.00,VWS V14.01,2013-05-31 23:15:00,
2013-05-31 19:20:00,83.8,67.5,30.10,SSW,205,1.3,1.3,58,0.00,,CLR,0.00,VWS V14.01,2013-05-31 23:20:00,
2013-05-31 19:25:00,83.8,68.0,30.10,SSE,153,0.0,2.6,59,0.00,,CLR,0.00,VWS V14.01,2013-05-31 23:25:00,
2013-05-31 19:30:00,83.9,67.1,30.10,SE,142,1.3,2.6,57,0.00,,CLR,0.00,VWS V14.01,2013-05-31 23:30:00,
2013-05-31 19:35:00,83.8,67.5,30.10,South,188,0.0,2.6,58,0.00,,CLR,0.00,VWS V14.01,2013-05-31 23:35:00,
2013-05-31 19:40:00,83.3,67.0,30.10,West,277,0.0,3.9,58,0.00,,CLR,0.00,VWS V14.01,2013-05-31 23:40:00,
2013-05-31 19:45:00,83.1,67.3,30.10,West,277,1.3,2.6,59,0.00,,CLR,0.00,VWS V14.01,2013-05-31 23:45:00,
2013-05-31 19:50:00,82.6,68.7,30.10,West,277,0.0,1.3,63,0.00,,CLR,0.00,VWS V14.01,2013-05-31 23:50:00,
2013-05-31 19:55:00,81.8,68.4,30.10,West,277,0.0,0.0,64,0.00,,CLR,0.00,VWS V14.01,2013-05-31 23:55:00,
2013-05-31 20:00:00,81.2,67.4,30.10,West,277,0.0,1.3,63,0.00,,CLR,0.00,VWS V14.01,2013-06-01 00:00:00,
2013-05-31 20:05:00,80.4,68.0,30.10,West,277,0.0,1.3,66,0.00,,CLR,0.00,VWS V14.01,2013-06-01 00:05:00,
2013-05-31 20:10:00,79.4,67.5,30.10,West,277,0.0,0.0,67,0.00,,CLR,0.00,VWS V14.01,2013-06-01 00:10:00,
2013-05-31 20:16:00,78.6,67.6,30.10,West,277,0.0,0.0,69,0.00,,CLR,0.00,VWS V14.01,2013-06-01 00:16:00,
2013-05-31 20:21:00,78.1,67.5,30.10,West,276,0.0,0.0,70,0.00,,CLR,0.00,VWS V14.01,2013-06-01 00:21:00,
2013-05-31 20:26:00,77.4,67.3,30.10,West,277,0.0,0.0,71,0.00,,CLR,0.00,VWS V14.01,2013-06-01 00:26:00,
2013-05-31 20:31:00,76.7,67.4,30.10,West,277,0.0,0.0,73,0.00,,CLR,0.00,VWS V14.01,2013-06-01 00:31:00,
2013-05-31 20:36:00,76.1,67.2,30.10,West,277,0.0,0.0,74,0.00,,CLR,0.00,VWS V14.01,2013-06-01 00:36:00,
2013-05-31 20:41:00,75.7,67.6,30.10,West,277,0.0,0.0,76,0.00,,CLR,0.00,VWS V14.01,2013-06-01 00:41:00,
2013-05-31 20:46:00,75.3,68.0,30.10,West,276,0.0,0.0,78,0.00,,CLR,0.00,VWS V14.01,2013-06-01 00:46:00,
2013-05-31 20:51:00,74.8,67.9,30.10,West,277,0.0,0.0,79,0.00,,CLR,0.00,VWS V14.01,2013-06-01 00:51:00,
2013-05-31 20:56:00,74.2,67.3,30.10,West,277,0.0,0.0,79,0.00,,CLR,0.00,VWS V14.01,2013-06-01 00:56:00,
2013-05-31 21:01:00,73.9,67.3,30.10,West,276,0.0,0.0,80,0.00,,CLR,0.00,VWS V14.01,2013-06-01 01:01:00,
2013-05-31 21:06:00,73.5,67.0,30.10,West,276,0.0,0.0,80,0.00,,CLR,0.00,VWS V14.01,2013-06-01 01:06:00,
2013-05-31 21:11:00,73.1,66.9,30.10,West,277,0.0,0.0,81,0.00,,CLR,0.00,VWS V14.01,2013-06-01 01:11:00,
2013-05-31 21:16:00,72.7,66.9,30.10,West,277,0.0,0.0,82,0.00,,CLR,0.00,VWS V14.01,2013-06-01 01:16:00,
2013-05-31 21:21:00,72.3,66.8,30.10,West,276,0.0,0.0,83,0.00,,CLR,0.00,VWS V14.01,2013-06-01 01:21:00,
2013-05-31 21:26:00,72.1,66.7,30.10,West,276,0.0,0.0,83,0.00,,CLR,0.00,VWS V14.01,2013-06-01 01:26:00,
2013-05-31 21:31:00,71.8,66.4,30.10,West,276,0.0,0.0,83,0.00,,CLR,0.00,VWS V14.01,2013-06-01 01:31:00,
2013-05-31 21:36:00,71.5,66.4,30.10,West,277,0.0,0.0,84,0.00,,CLR,0.00,VWS V14.01,2013-06-01 01:36:00,
2013-05-31 21:41:00,71.1,66.0,30.10,West,276,0.0,0.0,84,0.00,,CLR,0.00,VWS V14.01,2013-06-01 01:41:00,
2013-05-31 21:46:00,70.9,65.8,30.10,West,276,0.0,0.0,84,0.00,,CLR,0.00,VWS V14.01,2013-06-01 01:46:00,
2013-05-31 21:51:00,70.7,65.6,30.11,West,277,0.0,0.0,84,0.00,,CLR,0.00,VWS V14.01,2013-06-01 01:51:00,
2013-05-31 21:56:00,70.5,65.8,30.11,West,276,0.0,1.3,85,0.00,,CLR,0.00,VWS V14.01,2013-06-01 01:56:00,
2013-05-31 22:01:00,70.2,65.5,30.11,West,276,0.0,0.0,85,0.00,,CLR,0.00,VWS V14.01,2013-06-01 02:01:00,
2013-05-31 22:06:00,69.9,65.2,30.11,West,276,0.0,0.0,85,0.00,,CLR,0.00,VWS V14.01,2013-06-01 02:06:00,
2013-05-31 22:11:00,69.7,65.3,30.11,West,276,0.0,0.0,86,0.00,,CLR,0.00,VWS V14.01,2013-06-01 02:11:00,
2013-05-31 22:16:00,69.5,65.1,30.11,West,276,0.0,0.0,86,0.00,,CLR,0.00,VWS V14.01,2013-06-01 02:16:00,
2013-05-31 22:21:00,69.4,65.0,30.11,West,277,0.0,0.0,86,0.00,,CLR,0.00,VWS V14.01,2013-06-01 02:21:00,
2013-05-31 22:26:00,69.3,64.9,30.11,West,277,0.0,0.0,86,0.00,,CLR,0.00,VWS V14.01,2013-06-01 02:26:00,
2013-05-31 22:31:00,69.1,64.7,30.11,West,276,0.0,0.0,86,0.00,,CLR,0.00,VWS V14.01,2013-06-01 02:31:00,
2013-05-31 22:36:00,69.0,65.0,30.11,West,277,0.0,0.0,87,0.00,,CLR,0.00,VWS V14.01,2013-06-01 02:36:00,
2013-05-31 22:41:00,68.9,64.9,30.11,West,277,0.0,0.0,87,0.00,,CLR,0.00,VWS V14.01,2013-06-01 02:41:00,
2013-05-31 22:46:00,68.8,64.8,30.12,West,277,0.0,0.0,87,0.00,,CLR,0.00,VWS V14.01,2013-06-01 02:46:00,
2013-05-31 22:51:00,68.7,64.7,30.12,West,276,0.0,1.3,87,0.00,,CLR,0.00,VWS V14.01,2013-06-01 02:51:00,
2013-05-31 22:56:00,68.6,64.6,30.11,West,276,0.0,0.0,87,0.00,,CLR,0.00,VWS V14.01,2013-06-01 02:56:00,
2013-05-31 23:01:00,68.4,64.4,30.11,West,276,0.0,0.0,87,0.00,,BKN055,0.00,VWS V14.01,2013-06-01 03:01:00,
2013-05-31 23:06:00,68.3,64.3,30.11,West,277,0.0,0.0,87,0.00,,BKN055,0.00,VWS V14.01,2013-06-01 03:06:00,
2013-05-31 23:11:00,68.2,64.2,30.11,West,276,0.0,0.0,87,0.00,,BKN055,0.00,VWS V14.01,2013-06-01 03:11:00,
2013-05-31 23:16:00,68.3,64.6,30.11,West,276,0.0,0.0,88,0.00,,BKN055,0.00,VWS V14.01,2013-06-01 03:16:00,
2013-05-31 23:21:00,68.3,64.6,30.11,West,276,0.0,0.0,88,0.00,,BKN055,0.00,VWS V14.01,2013-06-01 03:21:00,
2013-05-31 23:26:00,68.4,64.7,30.11,West,277,0.0,0.0,88,0.00,,BKN055,0.00,VWS V14.01,2013-06-01 03:26:00,
2013-05-31 23:32:00,68.5,64.8,30.11,West,277,0.0,0.0,88,0.00,,BKN055,0.00,VWS V14.01,2013-06-01 03:32:00,
2013-05-31 23:37:00,68.6,64.6,30.11,West,276,0.0,1.3,87,0.00,,BKN055,0.00,VWS V14.01,2013-06-01 03:37:00,
2013-05-31 23:42:00,68.6,64.6,30.11,West,277,0.0,0.0,87,0.00,,BKN055,0.00,VWS V14.01,2013-06-01 03:42:00,
2013-05-31 23:45:00,68.7,64.7,30.11,West,276,0.0,0.0,87,0.00,,BKN055,0.00,VWS V14.01,2013-06-01 03:45:00,
2013-05-31 23:47:00,68.7,64.7,30.11,West,276,0.0,1.3,87,0.00,,BKN055,0.00,VWS V14.01,2013-06-01 03:47:00,
2013-05-31 23:52:00,68.7,64.7,30.11,West,276,0.0,0.0,87,0.00,,BKN055,0.00,VWS V14.01,2013-06-01 03:52:00,
2013-05-31 23:57:00,68.7,64.7,30.11,West,277,0.0,1.3,87,0.00,,BKN055,0.00,VWS V14.01,2013-06-01 03:57:00,